Weather History for LSGG - March, 2014

Change the Weather History Date:

Wednesday, March 19, 2014

  Actual Average Record
Temperature  
Mean Temperature 51 °F -  
Max Temperature 60 °F 53 °F 69 °F (2005)
Min Temperature 42 °F 36 °F 28 °F (2003)
Degree Days  
Heating Degree Days 14    
Growing Degree Days 1 (Base 50)    
Moisture  
Dew Point 37 °F    
Average Humidity 56    
Maximum Humidity 87    
Minimum Humidity 24    
Precipitation  
Precipitation 0.00 in 0.09 in - ()
Sea Level Pressure  
Sea Level Pressure 30.28 in    
Wind  
Wind Speed 4 mph ()    
Max Wind Speed 12 mph    
Max Gust Speed -    
Visibility 8.5 miles    
Events      
Averages and records for this station are not official NWS values.
T = Trace of Precipitation, MM = Missing Value Source: Averaged Metar Reports

Daily Weather History Graph

Daily Weather History Graph

Search for Another Location

Airport or City:

Trip Planner

Search our weather history database for the weather conditions in past years. The results will help you decide how hot, cold, wet, or windy it might be!

Date:

Astronomy

Mar. 19, 2014 Rise Set
Actual Time 6:40 AM CET 6:46 PM CET
Civil Twilight 6:11 AM CET 7:16 PM CET
Nautical Twilight 5:35 AM CET 7:51 PM CET
Astronomical Twilight 5:00 AM CET 8:27 PM CET
Moon 10:00 PM CET (3/19) 7:47 AM CET (3/19)
Length of Visible Light 13h 05m
Length of Day
12h 05m
Waning Gibbous, 92% of the Moon is Illuminated
Mar 19
Waning Gibbous
Mar 24
Last Quarter
Mar 30
New
Apr 7
First Quarter
Apr 15
Full

Hourly Weather History & Observations

Time (CET) Temp. Dew Point Humidity Pressure Visibility Wind Dir Wind Speed Gust Speed Precip Events Conditions
12:00 AM 49 °F 38 °F 57% 30.26 in - North 4.6 mph - -  
12:20 AM 50.0 °F 39.2 °F 66% 30.24 in 6.2 mi Variable 3.5 mph - N/A   Partly Cloudy
12:50 AM 50.0 °F 39.2 °F 66% 30.24 in 6.2 mi Calm Calm - N/A   Partly Cloudy
1:00 AM 48 °F 39 °F 62% 30.28 in 12 mi SW 2.3 mph - -   Scattered Clouds
1:20 AM 48.2 °F 39.2 °F 71% 30.24 in - Calm Calm - N/A   Clear
1:50 AM 44.6 °F 39.2 °F 81% 30.27 in - Variable 2.3 mph - N/A   Clear
2:00 AM 45 °F 38 °F 70% 30.30 in - WNW 3.5 mph - -  
2:50 AM 44.6 °F 39.2 °F 81% 30.27 in - Variable 1.2 mph - N/A   Clear
3:00 AM 45 °F 38 °F 68% 30.30 in - West 1.2 mph - -  
3:20 AM 44.6 °F 39.2 °F 81% 30.27 in 6.2 mi Variable 1.2 mph - N/A   Scattered Clouds
3:50 AM 44.6 °F 41.0 °F 87% 30.27 in 6.2 mi Variable 1.2 mph - N/A   Mostly Cloudy
4:00 AM 46 °F 39 °F 70% 30.31 in 12 mi NE 2.3 mph - -   Partly Cloudy
4:20 AM 46.4 °F 41.0 °F 81% 30.27 in 6.2 mi Variable 2.3 mph - N/A   Mostly Cloudy
4:50 AM 48.2 °F 39.2 °F 71% 30.27 in 6.2 mi West 3.5 mph - N/A   Mostly Cloudy
5:00 AM 49 °F 37 °F 52% 30.31 in - NNW 4.6 mph - -  
5:20 AM 48.2 °F 39.2 °F 71% 30.30 in 6.2 mi North 4.6 mph - N/A   Mostly Cloudy
5:50 AM 48.2 °F 41.0 °F 76% 30.30 in 6.2 mi Variable 1.2 mph - N/A   Mostly Cloudy
6:00 AM 48 °F 39 °F 63% 30.34 in - ENE 3.5 mph - -  
6:20 AM 48.2 °F 41.0 °F 76% 30.30 in 6.2 mi Variable 1.2 mph - N/A   Mostly Cloudy
6:50 AM 46.4 °F 41.0 °F 81% 30.30 in 6.2 mi Variable 1.2 mph - N/A   Mostly Cloudy
7:00 AM 47 °F 38 °F 63% 30.34 in 11 mi North 3.5 mph - -   Mostly Cloudy
7:20 AM 48.2 °F 39.2 °F 71% 30.30 in 6.2 mi Variable 3.5 mph - N/A   Mostly Cloudy
7:50 AM 48.2 °F 39.2 °F 71% 30.33 in 6.2 mi Variable 2.3 mph - N/A   Scattered Clouds
8:00 AM 49 °F 38 °F 56% 30.35 in - North 4.6 mph - -  
8:20 AM 50.0 °F 39.2 °F 66% 30.33 in 6.2 mi NNE 4.6 mph - N/A   Partly Cloudy
8:50 AM 50.0 °F 37.4 °F 62% 30.33 in 6.2 mi NE 8.1 mph - N/A   Partly Cloudy
9:00 AM 51 °F 37 °F 48% 30.35 in - NNE 10.4 mph - -  
9:20 AM 51.8 °F 39.2 °F 62% 30.33 in 6.2 mi NE 8.1 mph - N/A   Partly Cloudy
9:50 AM 53.6 °F 37.4 °F 54% 30.33 in 6.2 mi NE 10.4 mph - N/A   Partly Cloudy
10:00 AM 52 °F 35 °F 40% 30.35 in 16 mi ENE 8.1 mph - -   Scattered Clouds
10:20 AM 53.6 °F 37.4 °F 54% 30.33 in 6.2 mi NE 9.2 mph - N/A   Partly Cloudy
10:50 AM 53.6 °F 35.6 °F 51% 30.33 in 6.2 mi ENE 9.2 mph - N/A   Partly Cloudy
11:00 AM 54 °F 35 °F 36% 30.34 in - NE 10.4 mph - -  
11:20 AM 53.6 °F 37.4 °F 54% 30.33 in 6.2 mi NE 8.1 mph - N/A   Partly Cloudy
11:50 AM 55.4 °F 35.6 °F 47% 30.33 in 6.2 mi NE 9.2 mph - N/A   Partly Cloudy
12:00 PM 55 °F 33 °F 32% 30.33 in - NE 9.2 mph - -  
12:20 PM 55.4 °F 35.6 °F 47% 30.33 in - ENE 10.4 mph - N/A   Clear
12:50 PM 57.2 °F 35.6 °F 44% 30.33 in - ENE 9.2 mph - N/A   Clear
1:00 PM 57 °F 34 °F 30% 30.32 in 16 mi ENE 10.4 mph - -   Clear
1:20 PM 57.2 °F 35.6 °F 44% 30.30 in - NE 10.4 mph - N/A   Clear
1:50 PM 57.2 °F 35.6 °F 44% 30.30 in - NE 9.2 mph - N/A   Clear
2:00 PM 58 °F 34 °F 29% 30.30 in - NE 10.4 mph - -  
2:20 PM 59.0 °F 37.4 °F 45% 30.30 in - NE 10.4 mph - N/A   Clear
2:50 PM 59.0 °F 35.6 °F 42% 30.30 in - NE 10.4 mph - N/A   Clear
3:00 PM 59 °F 35 °F 28% 30.28 in - NE 11.5 mph - -  
3:20 PM 59.0 °F 35.6 °F 42% 30.27 in - NE 9.2 mph - N/A   Clear
3:50 PM 60.8 °F 35.6 °F 39% 30.27 in - NNE 9.2 mph - N/A   Clear
4:00 PM 60 °F 33 °F 25% 30.25 in 19 mi NE 9.2 mph - -   Clear
4:20 PM 60.8 °F 37.4 °F 42% 30.24 in - NE 8.1 mph - N/A   Clear
4:50 PM 60.8 °F 35.6 °F 39% 30.24 in - NE 10.4 mph - N/A   Clear
5:00 PM 60 °F 33 °F 24% 30.24 in - NE 9.2 mph - -  
5:20 PM 60.8 °F 33.8 °F 36% 30.24 in - NE 8.1 mph - N/A   Clear
5:50 PM 59.0 °F 37.4 °F 45% 30.24 in - NNE 8.1 mph - N/A   Clear
6:00 PM 58 °F 35 °F 31% 30.24 in - NNE 6.9 mph - -  
6:20 PM 59.0 °F 35.6 °F 42% 30.24 in - North 6.9 mph - N/A   Clear
6:50 PM 55.4 °F 35.6 °F 47% 30.24 in - NNE 6.9 mph - N/A   Clear
7:00 PM 55 °F 35 °F 35% 30.25 in 19 mi NNE 6.9 mph - -   Clear
7:20 PM 55.4 °F 37.4 °F 51% 30.24 in - NNE 4.6 mph - N/A   Clear
7:50 PM 51.8 °F 37.4 °F 58% 30.24 in - Variable 3.5 mph - N/A   Clear
8:00 PM 52 °F 36 °F 44% 30.26 in - North 3.5 mph - -  
8:20 PM 50.0 °F 37.4 °F 62% 30.24 in - Variable 1.2 mph - N/A   Clear
8:50 PM 50.0 °F 39.2 °F 66% 30.24 in - Variable 2.3 mph - N/A   Clear
9:00 PM 50 °F 38 °F 54% 30.27 in - NE 2.3 mph - -  
9:20 PM 48.2 °F 37.4 °F 66% 30.24 in - Calm Calm - N/A   Clear
9:50 PM 48.2 °F 37.4 °F 66% 30.24 in - Variable 1.2 mph - N/A   Clear
10:00 PM 47 °F 36 °F 57% 30.28 in 25 mi West 1.2 mph - -  
10:20 PM 46.4 °F 37.4 °F 71% 30.24 in - Calm Calm - N/A   Clear
10:50 PM 50.0 °F 39.2 °F 66% 30.24 in - Variable 1.2 mph - N/A   Clear
11:00 PM 51 °F 38 °F 52% 30.26 in - NE 8.1 mph - -  
11:20 PM 48.2 °F 39.2 °F 71% 30.24 in - NE 4.6 mph - N/A   Clear
11:50 PM 46.4 °F 39.2 °F 76% 30.24 in - Calm Calm - N/A   Clear